Flag for Canada Weather past 2 weeks in Winnipeg, Manitoba, Canada

Now
19 °F

Cold.


Feels Like: 10 °F
Forecast: 8 / 29 °F
Wind: 7 mph from Southwest

Location: Winnipeg The Forks

Current Time: Mar 5, 2015 at 6:33:50 PM

Latest Report: Mar 5, 2015 at 6:00 PM


Visibility: N/A

Pressure: 30.03 "Hg

Humidity: 67%

Dew point: 10 °F

Location of WinnipegLocation

Historic Weather in Winnipeg — Graph

°F

Winnipeg temperature yesterday

Maximum temperature yesterday: 0 °F (at 2:00 PM)
Minimum temperature yesterday: -10 °F (at 4:00 AM)
Average temperature yesterday: -5 °F

Past Weeks' High & Low Weather Summary

 TemperatureHumidityPressure
High27 °F (Feb 23, 10:00 PM)91% (Feb 24, 12:00 AM)30.83 "Hg (Feb 24, 12:00 AM)
Low-21 °F (Feb 22, 8:00 AM)46% (Feb 22, 5:00 PM)29.67 "Hg (Feb 23, 11:00 PM)
Average2 °F66%30.24 "Hg
* Reported Feb 18 5:00 PM — Mar 5 5:00 PM, Winnipeg, Weather by CustomWeather, © 2015

Note: Actual official high and low records may vary slightly from our data, if they occured in-between our weather recording intervals... More about our weather records

Advertising

Winnipeg weather history for previous 24 hours

 ConditionsComfort  
Time TempWeatherWind HumidityBarometerVisibility
5:00 PM
Thu, Mar 5
19 °FCold.8 mph63%30.06 "HgN/A
4:00 PM16 °FCold.8 mph64%30.11 "HgN/A
3:00 PM13 °FCold.7 mph63%30.14 "HgN/A
2:00 PM10 °FFrigid.7 mph61%30.17 "HgN/A
1:00 PM9 °FFrigid.6 mph54%30.22 "HgN/A
12:00 PM6 °FFrigid.6 mph56%30.24 "HgN/A
11:00 AM3 °FFrigid.6 mph52%30.27 "HgN/A
10:00 AM-1 °FFrigid.7 mph57%30.31 "HgN/A
9:00 AM-5 °FFrigid.6 mph62%30.31 "HgN/A
8:00 AM-9 °FFrigid.5 mph66%30.32 "HgN/A
7:00 AM-10 °FExtremely cold.3 mph67%30.34 "HgN/A
6:00 AMN/A8 mphN/A30.35 "HgN/A
5:00 AM-8 °FFrigid.5 mph63%30.34 "HgN/A
4:00 AM-10 °FFrigid.3 mph67%30.36 "HgN/A
3:00 AM-8 °FFrigid.6 mph66%30.38 "HgN/A
2:00 AM-8 °FFrigid.7 mph65%30.39 "HgN/A
1:00 AM-6 °FFrigid.7 mph69%30.39 "HgN/A
12:00 AM-5 °FFrigid.5 mph62%30.40 "HgN/A
11:00 PM
Wed, Mar 4
-5 °FFrigid.6 mph62%30.40 "HgN/A
10:00 PM-4 °FFrigid.5 mph64%30.40 "HgN/A
9:00 PM-3 °FFrigid.6 mph66%30.40 "HgN/A
8:00 PM-2 °FFrigid.5 mph63%30.40 "HgN/A
7:00 PM-1 °FFrigid.3 mph59%30.41 "HgN/A
6:00 PM-2 °FFrigid.5 mph61%30.41 "HgN/A
Weather by CustomWeather, © 2015

See weather overviewHow to use our weather pages